EWG6V LOWS-LCLK

Flight info

Callsign EWG6V
Flight time 2h 55m
Altitude 37000
Route NEMAL DCT VATET DCT RADLY DCT BEDOX DCT AGLIB DCT YULHU DCT VABEK UL603 OLOTA DCT DISOR DCT MES UL609 RDS UM601 EVENO DCT DASNI DCT BONEK
Aircraft A319/M-SDE3FGHIRWY/LB1

Departure

Time 2026-05-05 08:30
Airport Salzburg Airport (LOWS)

Arrival

Time 2026-05-05 11:25
Airport Larnaca International Airport (LCLK)
Time Latitude Longitude Altitude Speed Heading
2026-05-05 07:44 47.79198 12.99892 1415 ft 0 kts 282°
2026-05-05 08:19 47.79198 12.99893 1442 ft 1 kts 282°
2026-05-05 08:20 47.79193 12.99926 1414 ft 4 kts 281°
2026-05-05 08:20 47.79188 12.99966 1414 ft 4 kts 281°
2026-05-05 08:20 47.79180 13.00001 1414 ft 4 kts 311°
2026-05-05 08:20 47.79160 13.00025 1414 ft 4 kts 335°
2026-05-05 08:21 47.79154 13.00029 1414 ft 0 kts 337°
2026-05-05 08:23 47.79155 13.00029 1414 ft 1 kts 337°
2026-05-05 08:24 47.79171 13.00018 1414 ft 4 kts 337°
2026-05-05 08:24 47.79209 12.99994 1418 ft 8 kts 337°
2026-05-05 08:24 47.79270 12.99956 1414 ft 11 kts 336°
2026-05-05 08:24 47.79338 13.00002 1417 ft 14 kts 70°
2026-05-05 08:25 47.79402 13.00086 1417 ft 13 kts 340°
2026-05-05 08:25 47.79495 13.00026 1415 ft 16 kts 337°
2026-05-05 08:25 47.79601 12.99958 1417 ft 16 kts 336°
2026-05-05 08:25 47.79701 12.99895 1415 ft 15 kts 337°
2026-05-05 08:26 47.79809 12.99827 1415 ft 19 kts 337°
2026-05-05 08:26 47.79945 12.99741 1416 ft 24 kts 337°
2026-05-05 08:26 47.80089 12.99650 1417 ft 20 kts 337°
2026-05-05 08:26 47.80181 12.99593 1417 ft 12 kts 342°
2026-05-05 08:27 47.80259 12.99641 1417 ft 15 kts 57°
2026-05-05 08:27 47.80291 12.99768 1420 ft 9 kts 61°
2026-05-05 08:27 47.80350 12.99755 1417 ft 12 kts 328°
2026-05-05 08:27 47.80445 12.99697 1416 ft 17 kts 338°
2026-05-05 08:28 47.80508 12.99613 1414 ft 8 kts 310°
2026-05-05 08:28 47.80517 12.99652 1415 ft 8 kts 154°
2026-05-05 08:28 47.80484 12.99669 1414 ft 3 kts 158°
2026-05-05 08:28 47.80452 12.99689 1414 ft 7 kts 158°
2026-05-05 08:29 47.80213 12.99838 1417 ft 75 kts 157°
2026-05-05 08:29 47.79521 13.00277 1418 ft 139 kts 157°
2026-05-05 08:29 47.78484 13.00934 1596 ft 171 kts 156°
2026-05-05 08:30 47.76467 13.02601 2907 ft 164 kts 146°
2026-05-05 08:30 47.75664 13.03811 3250 ft 170 kts 112°
2026-05-05 08:30 47.75634 13.05516 3622 ft 171 kts 65°
2026-05-05 08:30 47.76476 13.06691 4014 ft 172 kts 18°
2026-05-05 08:31 47.77681 13.06717 4299 ft 183 kts 343°
2026-05-05 08:31 47.78918 13.06128 4692 ft 189 kts 341°
2026-05-05 08:31 47.80184 13.05596 5215 ft 189 kts 344°
2026-05-05 08:31 47.81454 13.05106 5730 ft 188 kts 345°
2026-05-05 08:32 47.82723 13.04630 6218 ft 189 kts 344°
2026-05-05 08:32 47.84005 13.04099 6590 ft 195 kts 342°
2026-05-05 08:32 47.85338 13.03481 6925 ft 206 kts 341°
2026-05-05 08:32 47.86776 13.03008 7283 ft 218 kts 357°
2026-05-05 08:33 47.88293 13.03320 7728 ft 226 kts 20°
2026-05-05 08:33 47.89675 13.04540 8081 ft 240 kts 43°
2026-05-05 08:33 47.90838 13.06392 8582 ft 250 kts 51°
2026-05-05 08:33 47.91926 13.08468 9135 ft 259 kts 58°
2026-05-05 08:34 47.92678 13.10874 9827 ft 261 kts 76°
2026-05-05 08:34 47.92872 13.13656 10043 ft 282 kts 93°
2026-05-05 08:34 47.92804 13.16672 10301 ft 302 kts 94°
2026-05-05 08:34 47.92711 13.19916 10447 ft 324 kts 94°
2026-05-05 08:35 47.92606 13.23351 10813 ft 336 kts 94°
2026-05-05 08:35 47.92500 13.26857 11378 ft 341 kts 94°
2026-05-05 08:35 47.92396 13.30402 11962 ft 345 kts 94°
2026-05-05 08:35 47.92289 13.33993 12549 ft 349 kts 94°
2026-05-05 08:36 47.92178 13.37628 13113 ft 353 kts 94°
2026-05-05 08:36 47.92065 13.41299 13661 ft 357 kts 94°
2026-05-05 08:36 47.91912 13.45001 14147 ft 359 kts 99°
2026-05-05 08:36 47.91338 13.48630 14652 ft 360 kts 111°
2026-05-05 08:37 47.90291 13.51962 15166 ft 361 kts 123°
2026-05-05 08:37 47.88795 13.54963 15704 ft 361 kts 133°
2026-05-05 08:37 47.87128 13.57782 16230 ft 364 kts 133°
2026-05-05 08:37 47.85445 13.60626 16756 ft 367 kts 133°
2026-05-05 08:38 47.83752 13.63495 17282 ft 371 kts 133°
2026-05-05 08:38 47.82043 13.66392 17792 ft 374 kts 133°
2026-05-05 08:38 47.80324 13.69309 18317 ft 376 kts 133°
2026-05-05 08:38 47.78595 13.72241 18784 ft 379 kts 133°
2026-05-05 08:39 47.76847 13.75194 19235 ft 382 kts 133°
2026-05-05 08:39 47.75080 13.78165 19684 ft 385 kts 133°
2026-05-05 08:39 47.73301 13.81151 20150 ft 388 kts 133°
2026-05-05 08:39 47.71505 13.84161 20596 ft 391 kts 133°
2026-05-05 08:40 47.69700 13.87198 21037 ft 394 kts 133°
2026-05-05 08:40 47.67886 13.90256 21492 ft 396 kts 133°
2026-05-05 08:40 47.66055 13.93336 21935 ft 399 kts 133°
2026-05-05 08:40 47.64210 13.96426 22360 ft 402 kts 133°
2026-05-05 08:41 47.62343 13.99545 22742 ft 406 kts 133°
2026-05-05 08:41 47.60455 14.02672 23141 ft 409 kts 135°
2026-05-05 08:41 47.58346 14.05524 23528 ft 411 kts 141°
2026-05-05 08:41 47.56164 14.08268 23859 ft 413 kts 141°
2026-05-05 08:42 47.53965 14.11033 24207 ft 415 kts 141°
2026-05-05 08:42 47.51755 14.13809 24556 ft 418 kts 141°
2026-05-05 08:42 47.49538 14.16597 24893 ft 420 kts 141°
2026-05-05 08:42 47.47337 14.19361 25223 ft 422 kts 141°
2026-05-05 08:43 47.45095 14.22174 25539 ft 424 kts 141°
2026-05-05 08:43 47.42838 14.25006 25848 ft 427 kts 141°
2026-05-05 08:43 47.40569 14.27847 26178 ft 429 kts 142°
2026-05-05 08:43 47.38283 14.30707 26426 ft 433 kts 142°
2026-05-05 08:44 47.35977 14.33586 26700 ft 436 kts 142°
2026-05-05 08:44 47.33656 14.36480 27026 ft 438 kts 142°
2026-05-05 08:44 47.31326 14.39378 27351 ft 440 kts 142°
2026-05-05 08:44 47.28981 14.42285 27686 ft 441 kts 142°
2026-05-05 08:45 47.26627 14.45203 28020 ft 443 kts 142°
2026-05-05 08:45 47.24263 14.48132 28318 ft 445 kts 142°
2026-05-05 08:45 47.21894 14.51071 28609 ft 447 kts 142°
2026-05-05 08:45 47.19510 14.54025 28900 ft 449 kts 142°
2026-05-05 08:46 47.17117 14.56991 29161 ft 451 kts 142°
2026-05-05 08:46 47.14710 14.59967 29390 ft 454 kts 143°
2026-05-05 08:46 47.12284 14.62963 29626 ft 457 kts 143°
2026-05-05 08:46 47.09838 14.65975 29887 ft 460 kts 143°
2026-05-05 08:47 47.07383 14.68990 30134 ft 461 kts 143°
2026-05-05 08:47 47.04919 14.72010 30366 ft 463 kts 143°
2026-05-05 08:47 47.02445 14.75043 30617 ft 464 kts 143°
2026-05-05 08:47 46.99969 14.78078 30872 ft 465 kts 143°
2026-05-05 08:48 46.97488 14.81117 31111 ft 466 kts 143°
2026-05-05 08:48 46.95001 14.84161 31438 ft 465 kts 143°
2026-05-05 08:48 46.92561 14.87143 31792 ft 463 kts 143°
2026-05-05 08:48 46.90090 14.90159 32093 ft 463 kts 143°
2026-05-05 08:49 46.87614 14.93179 32380 ft 463 kts 143°
2026-05-05 08:49 46.85140 14.96193 32702 ft 463 kts 143°
2026-05-05 08:49 46.82670 14.99192 33036 ft 462 kts 143°
2026-05-05 08:49 46.80205 15.02179 33398 ft 460 kts 143°
2026-05-05 08:50 46.77749 15.05150 33773 ft 458 kts 143°
2026-05-05 08:50 46.75303 15.08106 34106 ft 456 kts 143°
2026-05-05 08:50 46.72860 15.11054 34386 ft 455 kts 143°
2026-05-05 08:50 46.70421 15.13994 34663 ft 454 kts 143°
2026-05-05 08:51 46.67985 15.16930 34882 ft 454 kts 143°
2026-05-05 08:51 46.63325 15.23115 34959 ft 455 kts 134°
2026-05-05 08:52 46.59127 15.30010 34967 ft 455 kts 134°
2026-05-05 08:52 46.54924 15.36884 34961 ft 455 kts 134°
2026-05-05 08:53 46.50711 15.43741 34969 ft 455 kts 134°
2026-05-05 08:53 46.46488 15.50584 34967 ft 455 kts 134°
2026-05-05 08:54 46.42265 15.57408 34966 ft 455 kts 134°
2026-05-05 08:54 46.38038 15.64225 34973 ft 455 kts 134°
2026-05-05 08:55 46.33813 15.71037 34971 ft 455 kts 134°
2026-05-05 08:55 46.29583 15.77832 34976 ft 454 kts 134°
2026-05-05 08:56 46.25210 15.84312 34975 ft 451 kts 143°
2026-05-05 08:56 46.20377 15.90109 34977 ft 452 kts 143°
2026-05-05 08:57 46.15548 15.95902 34986 ft 452 kts 143°
2026-05-05 08:57 46.10715 16.01696 34987 ft 452 kts 143°
2026-05-05 08:58 46.05875 16.07479 34987 ft 452 kts 143°
2026-05-05 08:58 46.01029 16.13245 34987 ft 452 kts 143°
2026-05-05 08:59 45.96185 16.19005 34996 ft 452 kts 143°
2026-05-05 08:59 45.91333 16.24759 35005 ft 452 kts 143°
2026-05-05 09:00 45.86480 16.30496 35003 ft 452 kts 143°
2026-05-05 09:00 45.81623 16.36227 35004 ft 452 kts 143°
2026-05-05 09:01 45.76761 16.41957 34993 ft 452 kts 143°
2026-05-05 09:01 45.71928 16.47636 34998 ft 453 kts 143°
2026-05-05 09:02 45.67053 16.53350 34992 ft 453 kts 143°
2026-05-05 09:02 45.62178 16.59060 34993 ft 453 kts 143°
2026-05-05 09:03 45.57300 16.64754 34989 ft 453 kts 143°
2026-05-05 09:03 45.52411 16.70442 34992 ft 453 kts 143°
2026-05-05 09:04 45.47516 16.76118 34992 ft 454 kts 143°
2026-05-05 09:04 45.42621 16.81793 34994 ft 454 kts 143°
2026-05-05 09:05 45.37724 16.87463 34998 ft 454 kts 143°
2026-05-05 09:05 45.32824 16.93114 34994 ft 454 kts 143°
2026-05-05 09:06 45.27911 16.98762 34985 ft 454 kts 143°
2026-05-05 09:06 45.22998 17.04395 34990 ft 454 kts 143°
2026-05-05 09:07 45.18078 17.10029 34994 ft 455 kts 143°
2026-05-05 09:07 45.13246 17.15823 34993 ft 457 kts 136°
2026-05-05 09:08 45.09138 17.22706 34993 ft 458 kts 131°
2026-05-05 09:08 45.05061 17.29648 34993 ft 459 kts 131°
2026-05-05 09:09 45.00973 17.36583 34988 ft 459 kts 131°
2026-05-05 09:09 44.96884 17.43522 35008 ft 459 kts 131°
2026-05-05 09:10 44.92791 17.50454 35007 ft 460 kts 131°
2026-05-05 09:10 44.89381 17.56213 35005 ft 460 kts 131°
2026-05-05 09:11 44.85269 17.63130 35003 ft 460 kts 131°
2026-05-05 09:11 44.80486 17.71167 35003 ft 461 kts 131°
2026-05-05 09:12 44.77036 17.76953 35005 ft 461 kts 131°
2026-05-05 09:12 44.72931 17.83804 35001 ft 461 kts 131°
2026-05-05 09:13 44.68795 17.90700 35007 ft 461 kts 131°
2026-05-05 09:13 44.64658 17.97582 35018 ft 461 kts 132°
2026-05-05 09:14 44.60510 18.04465 35020 ft 462 kts 131°
2026-05-05 09:14 44.56362 18.11346 35019 ft 462 kts 131°
2026-05-05 09:15 44.52199 18.18226 35017 ft 463 kts 131°
2026-05-05 09:15 44.48033 18.25096 35019 ft 463 kts 132°
2026-05-05 09:16 44.43858 18.31955 35033 ft 463 kts 131°
2026-05-05 09:16 44.39677 18.38807 35033 ft 463 kts 131°
2026-05-05 09:17 44.35481 18.45661 35036 ft 464 kts 132°
2026-05-05 09:17 44.31281 18.52514 35041 ft 464 kts 131°
2026-05-05 09:18 44.27127 18.59340 35041 ft 464 kts 131°
2026-05-05 09:18 44.22974 18.66237 35047 ft 465 kts 131°
2026-05-05 09:19 44.18814 18.73133 35043 ft 465 kts 131°
2026-05-05 09:19 44.14640 18.80003 35043 ft 464 kts 131°
2026-05-05 09:20 44.10462 18.86854 35058 ft 465 kts 131°
2026-05-05 09:20 44.06271 18.93710 35053 ft 465 kts 131°
2026-05-05 09:21 44.02083 19.00565 35054 ft 465 kts 131°
2026-05-05 09:21 43.97887 19.07419 35061 ft 466 kts 131°
2026-05-05 09:22 43.93681 19.14254 35054 ft 466 kts 131°
2026-05-05 09:22 43.89463 19.21100 35063 ft 467 kts 131°
2026-05-05 09:23 43.85241 19.27937 35066 ft 467 kts 131°
2026-05-05 09:23 43.81009 19.34772 35069 ft 468 kts 131°
2026-05-05 09:24 43.76772 19.41603 35075 ft 468 kts 131°
2026-05-05 09:24 43.72528 19.48431 35074 ft 468 kts 131°
2026-05-05 09:25 43.68298 19.55204 35067 ft 469 kts 131°
2026-05-05 09:25 43.64037 19.62011 35071 ft 469 kts 132°
2026-05-05 09:26 43.59771 19.68823 35073 ft 469 kts 131°
2026-05-05 09:26 43.55504 19.75646 35070 ft 470 kts 131°
2026-05-05 09:27 43.51220 19.82456 35072 ft 470 kts 131°
2026-05-05 09:27 43.46923 19.89255 35079 ft 471 kts 131°
2026-05-05 09:28 43.42625 19.96037 35085 ft 471 kts 131°
2026-05-05 09:28 43.38309 20.02848 35069 ft 471 kts 131°
2026-05-05 09:29 43.33987 20.09635 35084 ft 472 kts 131°
2026-05-05 09:29 43.29657 20.16422 35085 ft 472 kts 131°
2026-05-05 09:30 43.25331 20.23209 35083 ft 473 kts 131°
2026-05-05 09:30 43.20994 20.29999 35088 ft 473 kts 131°
2026-05-05 09:31 43.16646 20.36781 35090 ft 474 kts 131°
2026-05-05 09:31 43.12289 20.43554 35086 ft 474 kts 131°
2026-05-05 09:32 43.07956 20.50285 35095 ft 475 kts 131°
2026-05-05 09:32 43.03574 20.57057 35090 ft 476 kts 131°
2026-05-05 09:33 42.99145 20.63790 35090 ft 476 kts 133°
2026-05-05 09:33 42.94422 20.70137 35093 ft 477 kts 137°
2026-05-05 09:34 42.89536 20.76272 35101 ft 477 kts 137°
2026-05-05 09:34 42.84683 20.82447 35118 ft 478 kts 136°
2026-05-05 09:35 42.79882 20.88704 35120 ft 478 kts 136°
2026-05-05 09:35 42.72685 20.98100 35124 ft 478 kts 136°
2026-05-05 09:36 42.67861 21.04330 35125 ft 478 kts 136°
2026-05-05 09:36 42.63036 21.10547 35126 ft 478 kts 136°
2026-05-05 09:37 42.58203 21.16767 35130 ft 479 kts 136°
2026-05-05 09:37 42.53367 21.22982 35124 ft 479 kts 136°
2026-05-05 09:38 42.48554 21.29154 35118 ft 480 kts 136°
2026-05-05 09:38 42.43700 21.35358 35115 ft 480 kts 136°
2026-05-05 09:39 42.38840 21.41553 35111 ft 480 kts 136°
2026-05-05 09:39 42.33971 21.47740 35101 ft 480 kts 136°
2026-05-05 09:40 42.29097 21.53923 35103 ft 481 kts 136°
2026-05-05 09:40 42.24222 21.60110 35103 ft 481 kts 136°
2026-05-05 09:41 42.19290 21.66213 35105 ft 482 kts 138°
2026-05-05 09:41 42.14236 21.72149 35101 ft 482 kts 139°
2026-05-05 09:42 42.09158 21.78047 35096 ft 482 kts 139°
2026-05-05 09:42 42.04090 21.83967 35112 ft 482 kts 139°
2026-05-05 09:43 41.99045 21.89909 35108 ft 482 kts 138°
2026-05-05 09:43 41.93997 21.95861 35109 ft 483 kts 138°
2026-05-05 09:44 41.88942 22.01790 35108 ft 483 kts 139°
2026-05-05 09:44 41.83905 22.07660 35103 ft 483 kts 139°
2026-05-05 09:45 41.78826 22.13562 35113 ft 484 kts 139°
2026-05-05 09:45 41.73749 22.19470 35121 ft 483 kts 139°
2026-05-05 09:46 41.68642 22.25409 35120 ft 483 kts 139°
2026-05-05 09:46 41.63591 22.31255 35120 ft 483 kts 139°
2026-05-05 09:47 41.58508 22.37109 35110 ft 483 kts 139°
2026-05-05 09:47 41.53424 22.42976 35102 ft 483 kts 139°
2026-05-05 09:48 41.48342 22.48824 35107 ft 483 kts 139°
2026-05-05 09:48 41.43250 22.54675 35100 ft 483 kts 139°
2026-05-05 09:49 41.38160 22.60508 35089 ft 483 kts 139°
2026-05-05 09:49 41.33064 22.66329 35077 ft 483 kts 139°
2026-05-05 09:50 41.27999 22.72108 35067 ft 483 kts 139°
2026-05-05 09:50 41.22887 22.77910 35068 ft 484 kts 139°
2026-05-05 09:51 41.17726 22.83655 35088 ft 484 kts 140°
2026-05-05 09:51 41.12548 22.89365 35081 ft 484 kts 140°
2026-05-05 09:52 41.07378 22.95071 35060 ft 484 kts 139°
2026-05-05 09:52 41.02213 23.00788 35057 ft 484 kts 139°
2026-05-05 09:53 40.97046 23.06497 35062 ft 484 kts 140°
2026-05-05 09:53 40.91874 23.12188 35078 ft 484 kts 140°
2026-05-05 09:54 40.86695 23.17864 35074 ft 484 kts 140°
2026-05-05 09:54 40.81516 23.23529 35058 ft 484 kts 140°
2026-05-05 09:55 40.76333 23.29200 35056 ft 484 kts 140°
2026-05-05 09:55 40.71181 23.34826 35061 ft 484 kts 140°
2026-05-05 09:56 40.65991 23.40483 35067 ft 484 kts 140°
2026-05-05 09:56 40.60788 23.46132 35088 ft 485 kts 140°
2026-05-05 09:57 40.55590 23.51771 35092 ft 484 kts 140°
2026-05-05 09:57 40.50393 23.57397 35077 ft 484 kts 140°
2026-05-05 09:58 40.45191 23.63019 35070 ft 484 kts 140°
2026-05-05 09:58 40.39987 23.68631 35066 ft 484 kts 140°
2026-05-05 09:59 40.34779 23.74226 35069 ft 484 kts 140°
2026-05-05 09:59 40.29565 23.79813 35087 ft 484 kts 140°
2026-05-05 10:00 40.24356 23.85387 35085 ft 484 kts 140°
2026-05-05 10:00 40.19140 23.90961 35084 ft 484 kts 140°
2026-05-05 10:01 40.13920 23.96530 35083 ft 484 kts 140°
2026-05-05 10:01 40.08704 24.02088 35084 ft 484 kts 140°
2026-05-05 10:02 40.03483 24.07634 35102 ft 484 kts 140°
2026-05-05 10:02 39.98261 24.13167 35091 ft 484 kts 140°
2026-05-05 10:03 39.93069 24.18663 35091 ft 484 kts 140°
2026-05-05 10:03 39.87804 24.24211 35088 ft 484 kts 140°
2026-05-05 10:04 39.82605 24.29680 35087 ft 483 kts 140°
2026-05-05 10:04 39.77376 24.35181 35085 ft 484 kts 140°
2026-05-05 10:05 39.72144 24.40672 35093 ft 484 kts 140°
2026-05-05 10:05 39.66898 24.46166 35089 ft 485 kts 140°
2026-05-05 10:06 39.61647 24.51654 35088 ft 485 kts 140°
2026-05-05 10:06 39.57286 24.56216 35091 ft 485 kts 140°
2026-05-05 10:07 39.52031 24.61692 35092 ft 485 kts 141°
2026-05-05 10:07 39.46766 24.67158 35079 ft 485 kts 141°
2026-05-05 10:08 39.41504 24.72608 35083 ft 485 kts 141°
2026-05-05 10:08 39.36238 24.78057 35082 ft 485 kts 141°
2026-05-05 10:09 39.30967 24.83501 35085 ft 485 kts 141°
2026-05-05 10:09 39.25693 24.88935 35090 ft 485 kts 141°
2026-05-05 10:10 39.20414 24.94367 35087 ft 485 kts 141°
2026-05-05 10:10 39.15170 24.99758 35088 ft 485 kts 141°
2026-05-05 10:11 39.09892 25.05177 35098 ft 485 kts 141°
2026-05-05 10:11 39.04606 25.10579 35098 ft 485 kts 141°
2026-05-05 10:12 38.99313 25.15975 35102 ft 486 kts 141°
2026-05-05 10:12 38.94019 25.21365 35092 ft 485 kts 141°
2026-05-05 10:13 38.88729 25.26755 35090 ft 485 kts 141°
2026-05-05 10:13 38.83436 25.32138 35090 ft 485 kts 141°
2026-05-05 10:14 38.78145 25.37499 35103 ft 485 kts 141°
2026-05-05 10:14 38.72844 25.42844 35105 ft 484 kts 141°
2026-05-05 10:15 38.67550 25.48182 35100 ft 485 kts 141°
2026-05-05 10:15 38.62260 25.53524 35092 ft 485 kts 141°
2026-05-05 10:16 38.56960 25.58848 35092 ft 484 kts 141°
2026-05-05 10:16 38.51655 25.64163 35105 ft 484 kts 141°
2026-05-05 10:17 38.46353 25.69470 35108 ft 484 kts 142°
2026-05-05 10:17 38.41055 25.74760 35108 ft 484 kts 142°
2026-05-05 10:18 38.35754 25.80049 35091 ft 483 kts 142°
2026-05-05 10:18 38.30459 25.85323 35088 ft 483 kts 142°
2026-05-05 10:19 38.25160 25.90584 35086 ft 483 kts 141°
2026-05-05 10:19 38.20003 25.96065 35103 ft 483 kts 138°
2026-05-05 10:20 38.15031 26.01717 35104 ft 482 kts 137°
2026-05-05 10:20 38.10030 26.07391 35090 ft 482 kts 138°
2026-05-05 10:21 38.04978 26.12988 35093 ft 482 kts 139°
2026-05-05 10:21 37.99909 26.18566 35096 ft 482 kts 139°
2026-05-05 10:22 37.94830 26.24128 35094 ft 482 kts 139°
2026-05-05 10:22 37.89753 26.29684 35111 ft 482 kts 139°
2026-05-05 10:23 37.84689 26.35233 35107 ft 481 kts 139°
2026-05-05 10:23 37.79626 26.40764 35102 ft 481 kts 139°
2026-05-05 10:24 37.74562 26.46274 35098 ft 480 kts 139°
2026-05-05 10:24 37.69501 26.51773 35090 ft 480 kts 139°
2026-05-05 10:25 37.64442 26.57265 35097 ft 480 kts 139°
2026-05-05 10:25 37.59389 26.62753 35099 ft 479 kts 139°
2026-05-05 10:26 37.54338 26.68224 35099 ft 478 kts 139°
2026-05-05 10:26 37.49290 26.73677 35097 ft 478 kts 139°
2026-05-05 10:27 37.44284 26.79086 35091 ft 478 kts 139°
2026-05-05 10:27 37.39242 26.84535 35088 ft 478 kts 139°
2026-05-05 10:28 37.34366 26.90201 35088 ft 477 kts 136°
2026-05-05 10:28 37.29625 26.96027 35090 ft 477 kts 136°
2026-05-05 10:29 37.24866 27.01817 35084 ft 476 kts 136°
2026-05-05 10:29 37.20058 27.07532 35075 ft 476 kts 137°
2026-05-05 10:30 37.15233 27.13216 35061 ft 476 kts 137°
2026-05-05 10:30 37.10421 27.18913 35075 ft 476 kts 137°
2026-05-05 10:31 37.05619 27.24612 35068 ft 476 kts 137°
2026-05-05 10:31 37.00845 27.30263 35065 ft 475 kts 137°
2026-05-05 10:32 36.96040 27.35942 35057 ft 475 kts 137°
2026-05-05 10:32 36.91233 27.41595 35037 ft 475 kts 137°
2026-05-05 10:33 36.86418 27.47247 35032 ft 475 kts 137°
2026-05-05 10:33 36.81604 27.52888 35041 ft 474 kts 137°
2026-05-05 10:34 36.76798 27.58516 35040 ft 474 kts 138°
2026-05-05 10:34 36.71986 27.64137 35036 ft 474 kts 138°
2026-05-05 10:35 36.67177 27.69750 35032 ft 474 kts 138°
2026-05-05 10:35 36.62365 27.75351 35013 ft 473 kts 138°
2026-05-05 10:36 36.57559 27.80947 35011 ft 473 kts 138°
2026-05-05 10:36 36.52757 27.86531 34997 ft 473 kts 138°
2026-05-05 10:37 36.47945 27.92096 34992 ft 473 kts 138°
2026-05-05 10:37 36.43160 27.97616 34990 ft 473 kts 138°
2026-05-05 10:38 36.38332 28.03184 34989 ft 473 kts 138°
2026-05-05 10:38 36.34210 28.09520 34989 ft 474 kts 119°
2026-05-05 10:39 36.31736 28.17039 34989 ft 472 kts 105°
2026-05-05 10:39 36.29755 28.24807 34984 ft 473 kts 105°
2026-05-05 10:40 36.27756 28.32579 34984 ft 474 kts 105°
2026-05-05 10:40 36.25750 28.40362 34992 ft 474 kts 106°
2026-05-05 10:41 36.23741 28.48138 34994 ft 474 kts 106°
2026-05-05 10:41 36.21727 28.55915 34996 ft 474 kts 106°
2026-05-05 10:42 36.18694 28.67581 35003 ft 474 kts 106°
2026-05-05 10:43 36.16666 28.75357 35002 ft 475 kts 106°
2026-05-05 10:43 36.14683 28.83150 35000 ft 475 kts 104°
2026-05-05 10:44 36.12840 28.90995 35001 ft 475 kts 105°
2026-05-05 10:44 36.10876 28.98796 35007 ft 475 kts 107°
2026-05-05 10:45 36.08794 29.06559 35000 ft 476 kts 107°
2026-05-05 10:45 36.06695 29.14314 35001 ft 476 kts 107°
2026-05-05 10:46 36.04618 29.22087 35015 ft 477 kts 107°
2026-05-05 10:46 36.02543 29.29876 35011 ft 478 kts 108°
2026-05-05 10:47 36.00270 29.37606 35016 ft 478 kts 107°
2026-05-05 10:47 35.98265 29.45432 35016 ft 478 kts 105°
2026-05-05 10:48 35.96284 29.53273 35015 ft 478 kts 106°
2026-05-05 10:48 35.94222 29.61026 35017 ft 479 kts 107°
2026-05-05 10:49 35.92049 29.68800 35000 ft 480 kts 110°
2026-05-05 10:49 35.89595 29.76446 34998 ft 480 kts 110°
2026-05-05 10:50 35.87198 29.84120 35007 ft 480 kts 108°
2026-05-05 10:50 35.85033 29.91902 34999 ft 480 kts 107°
2026-05-05 10:51 35.82956 29.99728 34997 ft 480 kts 105°
2026-05-05 10:51 35.81111 30.07644 34997 ft 480 kts 103°
2026-05-05 10:52 35.79381 30.15242 34999 ft 481 kts 104°
2026-05-05 10:52 35.78431 30.19165 34996 ft 481 kts 105°
2026-05-05 10:53 35.76427 30.27033 34999 ft 482 kts 105°
2026-05-05 10:53 35.74375 30.34943 34998 ft 482 kts 105°
2026-05-05 10:54 35.72356 30.42818 35006 ft 483 kts 105°
2026-05-05 10:54 35.70271 30.50613 35004 ft 484 kts 109°
2026-05-05 10:55 35.67848 30.58356 34997 ft 485 kts 109°
2026-05-05 10:55 35.65609 30.66167 35002 ft 484 kts 106°
2026-05-05 10:56 35.63588 30.74056 34999 ft 484 kts 105°
2026-05-05 10:56 35.61592 30.81957 35006 ft 484 kts 105°
2026-05-05 10:57 35.60011 30.88053 35008 ft 484 kts 105°
2026-05-05 10:57 35.59726 30.89150 35007 ft 484 kts 105°
2026-05-05 10:58 35.57684 30.97027 35014 ft 484 kts 105°
2026-05-05 10:58 35.56487 31.01734 34992 ft 484 kts 105°
2026-05-05 10:59 35.54646 31.08844 34990 ft 485 kts 105°
2026-05-05 10:59 35.52603 31.16692 34989 ft 485 kts 105°
2026-05-05 11:00 35.50584 31.24603 35003 ft 486 kts 103°
2026-05-05 11:00 35.49095 31.31293 34996 ft 486 kts 102°
2026-05-05 11:01 35.47271 31.39285 34881 ft 489 kts 106°
2026-05-05 11:01 35.46127 31.43246 34327 ft 496 kts 108°
2026-05-05 11:01 35.45033 31.47276 33750 ft 499 kts 102°
2026-05-05 11:01 35.44347 31.51427 33108 ft 497 kts 92°
2026-05-05 11:02 35.43935 31.55633 32507 ft 500 kts 99°
2026-05-05 11:02 35.42971 31.59749 31913 ft 503 kts 105°
2026-05-05 11:02 35.41889 31.63829 31329 ft 504 kts 105°
2026-05-05 11:02 35.40795 31.67909 30758 ft 504 kts 105°
2026-05-05 11:03 35.39696 31.71990 30194 ft 504 kts 105°
2026-05-05 11:03 35.38594 31.76065 29566 ft 503 kts 105°
2026-05-05 11:03 35.37484 31.80141 28936 ft 503 kts 105°
2026-05-05 11:03 35.36347 31.84183 28310 ft 503 kts 106°
2026-05-05 11:04 35.35166 31.88211 27691 ft 502 kts 107°
2026-05-05 11:04 35.33977 31.92223 27152 ft 500 kts 107°
2026-05-05 11:04 35.32784 31.96216 26641 ft 497 kts 107°
2026-05-05 11:04 35.31594 32.00169 26138 ft 495 kts 107°
2026-05-05 11:05 35.30397 32.04112 25648 ft 492 kts 107°
2026-05-05 11:05 35.29202 32.08022 25173 ft 489 kts 106°
2026-05-05 11:05 35.28005 32.11900 24713 ft 486 kts 107°
2026-05-05 11:05 35.26802 32.15758 24247 ft 483 kts 106°
2026-05-05 11:06 35.25600 32.19583 23826 ft 479 kts 107°
2026-05-05 11:06 35.24414 32.23366 23390 ft 474 kts 105°
2026-05-05 11:06 35.23345 32.27160 22900 ft 470 kts 104°
2026-05-05 11:06 35.22321 32.30887 22406 ft 466 kts 103°
2026-05-05 11:07 35.21287 32.34666 21942 ft 462 kts 103°
2026-05-05 11:07 35.20273 32.38394 21499 ft 459 kts 103°
2026-05-05 11:07 35.19289 32.42027 21046 ft 456 kts 103°
2026-05-05 11:07 35.18299 32.45705 20590 ft 453 kts 103°
2026-05-05 11:08 35.17336 32.49356 20145 ft 450 kts 103°
2026-05-05 11:08 35.16417 32.52991 19706 ft 447 kts 103°
2026-05-05 11:08 35.15512 32.56609 19267 ft 444 kts 103°
2026-05-05 11:08 35.14617 32.60216 18840 ft 441 kts 102°
2026-05-05 11:09 35.13737 32.63791 18424 ft 438 kts 103°
2026-05-05 11:09 35.12874 32.67330 17975 ft 435 kts 103°
2026-05-05 11:09 35.11982 32.70853 17483 ft 432 kts 103°
2026-05-05 11:09 35.11090 32.74340 17004 ft 428 kts 103°
2026-05-05 11:10 35.10204 32.77801 16561 ft 424 kts 104°
2026-05-05 11:10 35.09334 32.81213 16127 ft 419 kts 103°
2026-05-05 11:10 35.08468 32.84587 15687 ft 413 kts 103°
2026-05-05 11:10 35.07610 32.87908 15263 ft 408 kts 104°
2026-05-05 11:11 35.06698 32.91178 14862 ft 404 kts 105°
2026-05-05 11:11 35.05796 32.94395 14447 ft 399 kts 105°
2026-05-05 11:11 35.04904 32.97585 14035 ft 395 kts 105°
2026-05-05 11:11 35.04026 33.00727 13620 ft 390 kts 105°
2026-05-05 11:12 35.03157 33.03845 13168 ft 386 kts 105°
2026-05-05 11:12 35.02307 33.06928 12714 ft 381 kts 106°
2026-05-05 11:12 35.01449 33.09964 12273 ft 377 kts 107°
2026-05-05 11:12 35.00601 33.12980 11848 ft 372 kts 107°
2026-05-05 11:13 34.99784 33.15949 11458 ft 367 kts 107°
2026-05-05 11:13 34.99005 33.18890 11066 ft 362 kts 107°
2026-05-05 11:13 34.98269 33.21788 10772 ft 356 kts 107°
2026-05-05 11:13 34.97560 33.24628 10481 ft 352 kts 107°
2026-05-05 11:14 34.96860 33.27481 10163 ft 349 kts 107°
2026-05-05 11:14 34.96170 33.30346 9839 ft 346 kts 107°
2026-05-05 11:14 34.95497 33.33149 9490 ft 343 kts 108°
2026-05-05 11:14 34.94747 33.35892 9157 ft 340 kts 109°
2026-05-05 11:15 34.93997 33.38581 8823 ft 338 kts 109°
2026-05-05 11:15 34.93247 33.41252 8477 ft 331 kts 109°
2026-05-05 11:15 34.92507 33.43873 8134 ft 320 kts 109°
2026-05-05 11:15 34.91791 33.46399 7811 ft 310 kts 110°
2026-05-05 11:16 34.91096 33.48854 7484 ft 302 kts 109°
2026-05-05 11:16 34.90418 33.51236 7161 ft 294 kts 110°
2026-05-05 11:16 34.89756 33.53573 6838 ft 288 kts 109°
2026-05-05 11:16 34.89113 33.55849 6519 ft 282 kts 109°
2026-05-05 11:17 34.88480 33.58086 6189 ft 278 kts 109°
2026-05-05 11:17 34.87851 33.60297 5855 ft 273 kts 109°
2026-05-05 11:17 34.87226 33.62462 5521 ft 270 kts 109°
2026-05-05 11:17 34.86880 33.64669 5191 ft 263 kts 84°
2026-05-05 11:18 34.87282 33.66783 4862 ft 250 kts 69°
2026-05-05 11:18 34.87858 33.68735 4538 ft 241 kts 68°
2026-05-05 11:18 34.88447 33.70618 4199 ft 236 kts 68°
2026-05-05 11:18 34.89036 33.72462 3862 ft 231 kts 68°
2026-05-05 11:19 34.89618 33.74266 3536 ft 227 kts 68°
2026-05-05 11:19 34.90193 33.76047 3135 ft 224 kts 68°
2026-05-05 11:19 34.90761 33.77766 2761 ft 213 kts 65°
2026-05-05 11:19 34.91513 33.79262 2372 ft 201 kts 49°
2026-05-05 11:20 34.92651 33.80132 2079 ft 191 kts 14°
2026-05-05 11:20 34.93915 33.80211 1876 ft 176 kts 350°
2026-05-05 11:20 34.95004 33.79706 1723 ft 161 kts 330°
2026-05-05 11:20 34.95829 33.78892 1583 ft 148 kts 306°
2026-05-05 11:21 34.96302 33.77810 1517 ft 142 kts 296°
2026-05-05 11:21 34.96543 33.76646 1502 ft 142 kts 282°
2026-05-05 11:21 34.96669 33.75457 1500 ft 142 kts 279°
2026-05-05 11:21 34.96630 33.74254 1510 ft 145 kts 258°
2026-05-05 11:22 34.96165 33.73167 1509 ft 147 kts 231°
2026-05-05 11:22 34.95446 33.72278 1509 ft 147 kts 227°
2026-05-05 11:22 34.94738 33.71410 1511 ft 146 kts 226°
2026-05-05 11:22 34.94023 33.70531 1461 ft 145 kts 225°
2026-05-05 11:23 34.93313 33.69637 1352 ft 145 kts 225°
2026-05-05 11:23 34.92609 33.68769 1183 ft 144 kts 224°
2026-05-05 11:23 34.91894 33.67910 1017 ft 144 kts 225°
2026-05-05 11:23 34.91193 33.67049 840 ft 142 kts 225°
2026-05-05 11:24 34.90511 33.66214 665 ft 141 kts 225°
2026-05-05 11:24 34.89822 33.65376 490 ft 140 kts 224°
2026-05-05 11:24 34.89144 33.64546 306 ft 138 kts 224°
2026-05-05 11:24 34.88471 33.63728 155 ft 137 kts 224°
2026-05-05 11:25 34.87805 33.62920 23 ft 127 kts 225°
2026-05-05 11:25 34.87255 33.62248 18 ft 95 kts 225°
2026-05-05 11:25 34.87016 33.61938 21 ft 25 kts 242°
2026-05-05 11:25 34.86970 33.61777 23 ft 16 kts 253°
2026-05-05 11:26 34.86933 33.61623 19 ft 18 kts 256°
2026-05-05 11:26 34.86908 33.61505 19 ft 17 kts 255°
2026-05-05 11:26 34.86853 33.61394 19 ft 11 kts 222°
2026-05-05 11:26 34.86779 33.61308 17 ft 18 kts 229°
2026-05-05 11:27 34.86716 33.61227 20 ft 9 kts 225°
2026-05-05 11:27 34.86660 33.61159 21 ft 14 kts 224°
2026-05-05 11:27 34.86639 33.61084 21 ft 9 kts 306°
2026-05-05 11:27 34.86688 33.61051 21 ft 6 kts
2026-05-05 11:28 34.86745 33.61065 22 ft 8 kts
2026-05-05 11:28 34.86771 33.61066 20 ft 3 kts
2026-05-05 11:28 34.86788 33.61068 20 ft 2 kts
2026-05-05 11:28 34.86802 33.61070 21 ft 3 kts
2026-05-05 11:29 34.86806 33.61071 20 ft 0 kts